FW0386 Weather Reports


Display with metric or nautical units.
time (UTC)temp
F
wind
direction
speed
MPH
gust
MPH
rain 1hr
in
rain 24hr
in
rain mn
in
humidity
%
barometer
mb
20260903043020 55 145 0.0 1.0 0.00 0.00 0.00 83 1020.4
20260903041531 55 145 0.0 0.0 0.00 0.00 0.00 85 1020.3
20260903040041 54 145 0.0 0.0 0.00 0.00 0.00 84 1020.3
20260903034603 54 145 0.0 0.0 0.00 0.00 0.00 84 1020.1
20260903033054 54 145 0.0 0.0 0.00 0.00 0.00 86 1020.3
20260903031505 54 145 0.0 0.0 0.00 0.00 0.00 86 1020.3
20260903030028 54 145 0.0 0.0 0.00 0.00 0.00 85 1020.3
20260903024546 54 145 0.0 0.0 0.00 0.00 0.00 85 1020.5
20260903023054 54 145 0.0 0.0 0.00 0.00 0.00 85 1020.5
20260903021517 54 145 0.0 0.0 0.00 0.00 0.00 84 1020.5
20260903020029 54 145 0.0 0.0 0.00 0.00 0.00 84 1020.5
20260903014526 54 145 0.0 0.0 0.00 0.00 0.00 84 1020.5
20260903013005 54 145 0.0 0.0 0.00 0.00 0.00 84 1020.6
20260903011610 54 145 0.0 0.0 0.00 0.00 0.00 83 1020.4
20260903010009 54 145 0.0 0.0 0.00 0.00 0.00 83 1020.6
20260903004522 53 145 0.0 0.0 0.00 0.00 0.00 84 1020.6
20260903003016 52 145 0.0 0.0 0.00 0.00 0.00 85 1020.5
20260903001552 52 145 0.0 0.0 0.00 0.00 0.00 85 1020.5
20260903000047 53 145 0.0 0.0 0.00 0.00 0.00 85 1020.4
20260902234504 52 145 0.0 0.0 0.00 0.00 0.00 84 1020.6
20260902233020 53 145 0.0 1.0 0.00 0.00 0.00 82 1020.6
20260902231546 54 145 0.0 1.0 0.00 0.00 0.00 82 1020.6
20260902230043 54 290 0.0 0.0 0.00 0.00 0.00 81 1020.6
20260902224528 54 290 0.0 0.0 0.00 0.00 0.00 81 1020.5
20260902223041 55 290 0.0 1.0 0.00 0.00 0.00 80 1020.6
20260902221601 56 290 0.0 0.0 0.00 0.00 0.00 78 1020.6
20260902220122 56 290 0.0 0.0 0.00 0.00 0.00 78 1020.6
20260902214524 56 290 0.0 0.0 0.00 0.00 0.00 77 1020.5
20260902213035 57 290 0.0 0.0 0.00 0.00 0.00 76 1020.6
20260902211534 58 290 0.0 0.0 0.00 0.00 0.00 76 1020.6
20260902210005 59 290 0.0 0.0 0.00 0.00 0.00 74 1020.3
20260902204519 60 290 0.0 0.0 0.00 0.00 0.00 73 1020.3
20260902203036 61 290 0.0 0.0 0.00 0.00 0.00 72 1020.2
20260902201533 61 290 0.0 0.0 0.00 0.00 0.00 71 1020.2
20260902200006 61 290 0.0 0.0 0.00 0.00 0.00 72 1020.0
20260902194510 62 290 0.0 0.0 0.00 0.00 0.00 71 1020.0
20260902193019 62 290 0.0 0.0 0.00 0.00 0.00 70 1020.0
20260902191536 62 290 0.0 0.0 0.00 0.00 0.00 69 1020.0
20260902190031 62 290 0.0 0.0 0.00 0.00 0.00 69 1020.0
20260902184544 63 290 0.0 0.0 0.00 0.00 0.00 68 1019.9
20260902183005 65 290 0.0 0.0 0.00 0.00 0.00 65 1019.9
20260902181527 66 290 0.0 0.0 0.00 0.00 0.00 63 1019.8
20260902180044 67 290 0.0 0.0 0.00 0.00 0.00 59 1019.8
20260902174537 68 290 0.0 0.0 0.00 0.00 0.00 57 1019.5
20260902173019 69 290 0.0 1.0 0.00 0.00 0.00 55 1019.5
20260902171506 70 293 0.0 1.0 0.00 0.00 0.00 53 1019.3
20260902170023 72 277 0.0 1.0 0.00 0.00 0.00 51 1019.4
20260902164547 73 11 0.0 4.0 0.00 0.00 0.00 49 1019.3
20260902163005 75 231 2.0 4.0 0.00 0.00 0.00 47 1019.3
20260902161530 76 285 0.0 3.0 0.00 0.00 0.00 46 1019.3
20260902160053 76 214 0.0 5.0 0.00 0.00 0.00 46 1019.3
20260902154511 75 22 0.0 4.0 0.00 0.00 0.00 47 1019.1
20260902153004 76 63 1.0 4.0 0.00 0.00 0.00 47 1019.2
20260902151531 75 233 1.0 5.0 0.00 0.00 0.00 46 1019.4
20260902150001 76 205 0.0 4.0 0.00 0.00 0.00 44 1019.5
20260902144522 76 278 0.0 6.0 0.00 0.00 0.00 43 1019.4
20260902143033 76 283 0.0 5.0 0.00 0.00 0.00 42 1019.5
20260902141557 76 224 0.0 4.0 0.00 0.00 0.00 40 1019.5
20260902140059 76 280 0.0 5.0 0.00 0.00 0.00 42 1019.6
20260902134531 77 177 1.0 7.0 0.00 0.00 0.00 41 1019.7
20260902133034 77 236 0.0 6.0 0.00 0.00 0.00 42 1019.7
20260902131547 77 269 3.0 7.0 0.00 0.00 0.00 40 1019.9
20260902130053 77 234 3.0 10.0 0.00 0.00 0.00 43 1019.9
20260902124504 77 179 0.0 7.0 0.00 0.00 0.00 44 1020.0
20260902123027 77 116 2.0 9.0 0.00 0.00 0.00 41 1020.3
20260902121553 78 150 2.0 6.0 0.00 0.00 0.00 41 1020.3
20260902120110 78 253 0.0 8.0 0.00 0.00 0.00 42 1020.4
20260902114510 78 264 2.0 8.0 0.00 0.00 0.00 43 1020.6
20260902113041 78 226 1.0 6.0 0.00 0.00 0.00 42 1020.6
20260902111542 76 215 1.0 6.0 0.00 0.00 0.00 45 1020.6
20260902110105 76 304 2.0 8.0 0.00 0.00 0.00 45 1020.8
20260902104531 76 29 1.0 7.0 0.00 0.00 0.00 45 1020.9
20260902103027 76 156 0.0 4.0 0.00 0.00 0.00 48 1021.0
20260902101531 75 247 1.0 8.0 0.00 0.00 0.00 49 1021.1
20260902100114 74 226 0.0 4.0 0.00 0.00 0.00 50 1021.3
20260902094554 75 250 0.0 5.0 0.00 0.00 0.00 49 1021.4
20260902093016 75 248 1.0 5.0 0.00 0.00 0.00 49 1021.4
20260902091522 74 84 1.0 5.0 0.00 0.00 0.00 51 1021.5
20260902090040 75 229 1.0 6.0 0.00 0.00 0.00 48 1021.6
20260902084535 74 227 1.0 6.0 0.00 0.00 0.00 50 1021.8
20260902083108 73 89 0.0 4.0 0.00 0.00 0.00 56 1021.8
20260902081607 71 74 0.0 3.0 0.00 0.00 0.00 60 1021.8
20260902080110 70 122 0.0 2.0 0.00 0.00 0.00 59 1021.8
20260902074544 70 345 0.0 3.0 0.00 0.00 0.00 60 1021.8
20260902073012 68 356 0.0 3.0 0.00 0.00 0.00 62 1022.0
20260902071537 68 70 0.0 1.0 0.00 0.00 0.00 61 1022.1
20260902070053 66 23 0.0 1.0 0.00 0.00 0.00 66 1021.9
20260902064515 63 104 0.0 1.0 0.00 0.00 0.00 69 1021.9
20260902063015 60 113 0.0 1.0 0.00 0.00 0.00 76 1022.0
20260902061531 56 137 0.0 0.0 0.00 0.00 0.00 82 1021.9
20260902060050 54 139 0.0 0.0 0.00 0.00 0.00 82 1021.8
20260902054558 52 274 0.0 0.0 0.00 0.00 0.00 84 1021.8
20260902053009 51 274 0.0 1.0 0.00 0.00 0.00 87 1021.7
20260902051521 49 275 0.0 1.0 0.00 0.00 0.00 90 1021.6
20260902050027 48 275 0.0 0.0 0.00 0.00 0.00 90 1021.7
20260902044554 48 275 0.0 0.0 0.00 0.00 0.00 90 1021.7